Time,TemperatureF,DewpointF,PressureIn,WindDirection,WindDirectionDegrees,WindSpeedMPH,WindSpeedGustMPH,Humidity,HourlyPrecipIn,Conditions,Clouds,dailyrainin,SoftwareType,DateUTC
2013-02-27 00:02:00,32.0,-99.9,29.50,WNW,293,0.0,0.0,-999,0.00,,,1.21,,2013-02-27 06:02:00,
2013-02-27 00:11:00,32.0,-99.9,29.50,WNW,293,0.0,0.0,-999,0.00,,,1.21,,2013-02-27 06:11:00,
2013-02-27 00:22:00,32.0,-99.9,29.51,WSW,248,0.0,9.0,-999,0.00,,,1.21,,2013-02-27 06:22:00,
2013-02-27 00:33:00,32.0,-99.9,29.50,SW,225,3.0,8.0,-999,0.00,,,1.21,,2013-02-27 06:33:00,
2013-02-27 00:42:00,32.0,-99.9,29.50,SW,225,3.0,8.0,-999,0.00,,,1.21,,2013-02-27 06:42:00,
2013-02-27 00:52:00,32.0,-99.9,29.50,West,270,0.0,6.0,-999,0.00,,,1.21,,2013-02-27 06:52:00,
2013-02-27 01:01:00,32.0,-99.9,29.50,West,270,0.0,0.0,-999,0.00,,,1.21,,2013-02-27 07:01:00,
2013-02-27 01:12:00,32.0,-99.9,29.50,West,270,0.0,0.0,-999,0.00,,,1.21,,2013-02-27 07:12:00,
2013-02-27 01:22:00,32.0,-99.9,29.51,SSW,203,0.0,6.0,-999,0.00,,,1.21,,2013-02-27 07:22:00,
2013-02-27 01:32:00,32.0,-99.9,29.52,SSW,203,0.0,0.0,-999,0.00,,,1.21,,2013-02-27 07:32:00,
2013-02-27 01:42:00,32.0,-99.9,29.52,SSW,203,0.0,0.0,-999,0.00,,,1.21,,2013-02-27 07:42:00,
2013-02-27 01:52:00,32.0,-99.9,29.52,SSW,203,0.0,0.0,-999,0.00,,,1.21,,2013-02-27 07:52:00,
2013-02-27 02:01:00,32.0,-99.9,29.53,WSW,248,5.0,8.0,-999,0.00,,,1.21,,2013-02-27 08:01:00,
2013-02-27 02:12:00,32.0,-99.9,29.53,WSW,248,5.0,8.0,-999,0.00,,,1.21,,2013-02-27 08:12:00,
2013-02-27 02:22:00,32.0,-99.9,29.53,West,270,6.0,10.0,-999,0.00,,,1.21,,2013-02-27 08:22:00,
2013-02-27 02:32:00,32.0,-99.9,29.53,West,270,5.0,9.0,-999,0.00,,,1.21,,2013-02-27 08:32:00,
2013-02-27 02:42:00,32.0,-99.9,29.53,West,270,5.0,9.0,-999,0.00,,,1.21,,2013-02-27 08:42:00,
2013-02-27 02:53:00,32.0,-99.9,29.53,WSW,248,6.0,10.0,-999,0.00,,,1.20,,2013-02-27 08:53:00,
2013-02-27 03:02:00,32.0,-99.9,29.53,WSW,248,6.0,12.0,-999,0.00,,,1.20,,2013-02-27 09:02:00,
2013-02-27 03:12:00,32.0,-99.9,29.53,WSW,248,6.0,12.0,-999,0.00,,,1.20,,2013-02-27 09:12:00,
2013-02-27 03:22:00,32.0,-99.9,29.54,West,270,6.0,12.0,-999,0.00,,,1.20,,2013-02-27 09:22:00,
2013-02-27 03:32:00,32.0,-99.9,29.54,West,270,6.0,12.0,-999,0.00,,,1.20,,2013-02-27 09:32:00,
2013-02-27 03:42:00,32.0,-99.9,29.54,West,270,6.0,12.0,-999,0.00,,,1.20,,2013-02-27 09:42:00,
2013-02-27 03:52:00,32.0,-99.9,29.53,WSW,248,7.0,15.0,-999,0.00,,,1.20,,2013-02-27 09:52:00,
2013-02-27 04:01:00,32.0,-99.9,29.54,West,270,7.0,13.0,-999,0.00,,,1.20,,2013-02-27 10:01:00,
2013-02-27 04:12:00,32.0,-99.9,29.54,West,270,7.0,13.0,-999,0.00,,,1.20,,2013-02-27 10:12:00,
2013-02-27 04:22:00,32.0,-99.9,29.54,West,270,6.0,10.0,-999,0.00,,,1.20,,2013-02-27 10:22:00,
2013-02-27 04:32:00,32.0,-99.9,29.54,WSW,248,2.0,10.0,-999,0.01,,,1.21,,2013-02-27 10:32:00,
2013-02-27 04:42:00,32.0,-99.9,29.54,WSW,248,2.0,10.0,-999,0.01,,,1.21,,2013-02-27 10:42:00,
2013-02-27 04:53:00,32.0,-99.9,29.55,West,270,2.0,9.0,-999,0.01,,,1.18,,2013-02-27 10:53:00,
2013-02-27 05:03:00,32.0,-99.9,29.55,West,270,0.0,0.0,-999,0.01,,,1.15,,2013-02-27 11:03:00,
2013-02-27 05:12:00,32.0,-99.9,29.55,West,270,0.0,0.0,-999,0.01,,,1.15,,2013-02-27 11:12:00,
2013-02-27 05:22:00,32.0,-99.9,29.55,West,270,0.0,0.0,-999,0.01,,,1.10,,2013-02-27 11:22:00,
2013-02-27 05:32:00,32.0,-99.9,29.56,West,270,0.0,0.0,-999,0.00,,,1.04,,2013-02-27 11:32:00,
2013-02-27 05:42:00,32.0,-99.9,29.56,West,270,0.0,0.0,-999,0.00,,,1.04,,2013-02-27 11:42:00,
2013-02-27 05:52:00,32.0,-99.9,29.56,West,270,0.0,0.0,-999,0.00,,,1.00,,2013-02-27 11:52:00,
2013-02-27 06:02:00,32.0,-99.9,29.57,West,270,0.0,0.0,-999,0.00,,,0.94,,2013-02-27 12:02:00,
2013-02-27 06:13:00,32.0,-99.9,29.57,West,270,0.0,0.0,-999,0.00,,,0.94,,2013-02-27 12:13:00,
2013-02-27 06:22:00,32.0,-99.9,29.57,West,270,0.0,0.0,-999,0.00,,,0.90,,2013-02-27 12:22:00,
2013-02-27 06:33:00,32.0,-99.9,29.58,West,270,0.0,0.0,-999,0.00,,,0.84,,2013-02-27 12:33:00,
2013-02-27 06:42:00,32.0,-99.9,29.58,West,270,0.0,0.0,-999,0.00,,,0.84,,2013-02-27 12:42:00,
2013-02-27 06:53:00,32.0,-99.9,29.58,West,270,0.0,0.0,-999,0.00,,,0.76,,2013-02-27 12:53:00,
2013-02-27 07:03:00,32.0,-99.9,29.58,West,270,0.0,0.0,-999,0.00,,,0.69,,2013-02-27 13:03:00,
2013-02-27 07:12:00,32.0,-99.9,29.58,West,270,0.0,0.0,-999,0.00,,,0.69,,2013-02-27 13:12:00,
2013-02-27 07:22:00,32.0,-99.9,29.59,West,270,0.0,0.0,-999,0.00,,,0.62,,2013-02-27 13:22:00,
2013-02-27 07:32:00,32.0,-99.9,29.60,West,270,0.0,0.0,-999,0.00,,,0.61,,2013-02-27 13:32:00,
2013-02-27 07:42:00,32.0,-99.9,29.60,West,270,0.0,0.0,-999,0.00,,,0.61,,2013-02-27 13:42:00,
2013-02-27 07:53:00,32.0,-99.9,29.60,West,270,0.0,0.0,-999,0.00,,,0.60,,2013-02-27 13:53:00,
2013-02-27 08:02:00,32.0,-99.9,29.61,West,270,0.0,0.0,-999,0.00,,,0.54,,2013-02-27 14:02:00,
2013-02-27 08:12:00,32.0,-99.9,29.61,West,270,0.0,0.0,-999,0.00,,,0.54,,2013-02-27 14:12:00,
2013-02-27 08:22:00,32.0,-99.9,29.61,West,270,0.0,0.0,-999,0.00,,,0.47,,2013-02-27 14:22:00,
2013-02-27 08:32:00,32.0,-99.9,29.62,West,270,0.0,0.0,-999,0.00,,,0.45,,2013-02-27 14:32:00,
2013-02-27 08:42:00,32.0,-99.9,29.62,West,270,0.0,0.0,-999,0.00,,,0.45,,2013-02-27 14:42:00,
2013-02-27 08:53:00,32.0,-99.9,29.62,West,270,0.0,0.0,-999,0.00,,,0.40,,2013-02-27 14:53:00,
2013-02-27 09:02:00,32.0,-99.9,29.62,West,270,0.0,0.0,-999,0.00,,,0.35,,2013-02-27 15:02:00,
2013-02-27 09:13:00,32.0,-99.9,29.62,West,270,0.0,0.0,-999,0.00,,,0.35,,2013-02-27 15:13:00,
2013-02-27 09:23:00,32.0,-99.9,29.62,West,270,0.0,0.0,-999,0.00,,,0.31,,2013-02-27 15:23:00,
2013-02-27 09:32:00,32.0,-99.9,29.62,West,270,0.0,0.0,-999,0.01,,,0.28,,2013-02-27 15:32:00,
2013-02-27 09:42:00,32.0,-99.9,29.62,West,270,0.0,0.0,-999,0.01,,,0.28,,2013-02-27 15:42:00,
2013-02-27 09:52:00,32.0,-99.9,29.62,West,270,0.0,0.0,-999,0.01,,,0.27,,2013-02-27 15:52:00,
2013-02-27 10:02:00,32.0,-99.9,29.62,West,270,0.0,0.0,-999,0.02,,,0.27,,2013-02-27 16:02:00,
2013-02-27 10:12:00,32.0,-99.9,29.62,West,270,0.0,0.0,-999,0.02,,,0.27,,2013-02-27 16:12:00,
2013-02-27 10:22:00,32.0,-99.9,29.62,West,270,0.0,0.0,-999,0.02,,,0.26,,2013-02-27 16:22:00,
2013-02-27 10:32:00,32.0,-99.9,29.62,West,270,0.0,0.0,-999,0.01,,,0.26,,2013-02-27 16:32:00,
2013-02-27 10:42:00,32.0,-99.9,29.62,West,270,0.0,0.0,-999,0.01,,,0.26,,2013-02-27 16:42:00,
2013-02-27 10:52:00,32.0,-99.9,29.63,West,270,0.0,0.0,-999,0.02,,,0.25,,2013-02-27 16:52:00,
2013-02-27 11:02:00,32.0,-99.9,29.63,West,270,0.0,0.0,-999,0.01,,,0.22,,2013-02-27 17:02:00,
2013-02-27 11:11:00,32.0,-99.9,29.63,West,270,0.0,0.0,-999,0.01,,,0.22,,2013-02-27 17:11:00,
2013-02-27 11:22:00,33.0,-99.9,29.63,West,270,0.0,0.0,-999,0.01,,,0.20,,2013-02-27 17:22:00,
2013-02-27 11:32:00,33.0,-99.9,29.64,West,270,0.0,0.0,-999,0.00,,,0.18,,2013-02-27 17:32:00,
2013-02-27 11:42:00,33.0,-99.9,29.64,West,270,0.0,0.0,-999,0.00,,,0.18,,2013-02-27 17:42:00,
2013-02-27 11:52:00,32.0,-99.9,29.64,West,270,0.0,0.0,-999,0.00,,,0.18,,2013-02-27 17:52:00,
2013-02-27 12:02:00,33.0,-99.9,29.64,West,270,0.0,0.0,-999,0.01,,,0.18,,2013-02-27 18:02:00,
2013-02-27 12:11:00,33.0,-99.9,29.64,West,270,0.0,0.0,-999,0.01,,,0.18,,2013-02-27 18:11:00,
2013-02-27 12:22:00,33.0,-99.9,29.63,West,270,0.0,0.0,-999,0.01,,,0.18,,2013-02-27 18:22:00,
2013-02-27 12:32:00,33.0,-99.9,29.63,West,270,0.0,0.0,-999,0.01,,,0.17,,2013-02-27 18:32:00,
2013-02-27 12:42:00,33.0,-99.9,29.63,West,270,0.0,0.0,-999,0.01,,,0.17,,2013-02-27 18:42:00,
2013-02-27 12:52:00,33.0,-99.9,29.63,West,270,0.0,0.0,-999,0.01,,,0.16,,2013-02-27 18:52:00,
2013-02-27 13:02:00,33.0,-99.9,29.63,West,270,0.0,0.0,-999,0.00,,,0.15,,2013-02-27 19:02:00,
2013-02-27 13:12:00,33.0,-99.9,29.63,West,270,0.0,0.0,-999,0.00,,,0.15,,2013-02-27 19:12:00,
2013-02-27 13:22:00,33.0,-99.9,29.63,West,270,0.0,0.0,-999,0.00,,,0.14,,2013-02-27 19:22:00,
2013-02-27 13:32:00,33.0,-99.9,29.63,West,270,8.0,14.0,-999,0.00,,,0.10,,2013-02-27 19:32:00,
2013-02-27 13:42:00,33.0,-99.9,29.63,West,270,8.0,14.0,-999,0.00,,,0.10,,2013-02-27 19:42:00,
2013-02-27 13:52:00,33.0,-99.9,29.63,WSW,248,9.0,15.0,-999,0.00,,,0.08,,2013-02-27 19:52:00,
2013-02-27 14:02:00,33.0,-99.9,29.63,West,270,10.0,16.0,-999,0.00,,,0.07,,2013-02-27 20:02:00,
2013-02-27 14:12:00,33.0,-99.9,29.63,West,270,10.0,16.0,-999,0.00,,,0.07,,2013-02-27 20:12:00,
2013-02-27 14:22:00,33.0,-99.9,29.64,West,270,9.0,17.0,-999,0.00,,,0.07,,2013-02-27 20:22:00,
2013-02-27 14:32:00,33.0,-99.9,29.64,West,270,9.0,16.0,-999,0.00,,,0.07,,2013-02-27 20:32:00,
2013-02-27 14:42:00,33.0,-99.9,29.64,West,270,9.0,16.0,-999,0.00,,,0.07,,2013-02-27 20:42:00,
2013-02-27 14:53:00,33.0,-99.9,29.64,WSW,248,9.0,17.0,-999,0.01,,,0.08,,2013-02-27 20:53:00,
2013-02-27 15:02:00,33.0,-99.9,29.64,West,270,9.0,16.0,-999,0.01,,,0.08,,2013-02-27 21:02:00,
2013-02-27 15:11:00,33.0,-99.9,29.64,West,270,9.0,16.0,-999,0.01,,,0.08,,2013-02-27 21:11:00,
2013-02-27 15:22:00,32.0,-99.9,29.65,North,0,3.0,15.0,-999,0.01,,,0.08,,2013-02-27 21:22:00,
2013-02-27 15:32:00,33.0,-99.9,29.65,NNW,338,5.0,15.0,-999,0.01,,,0.08,,2013-02-27 21:32:00,
2013-02-27 15:42:00,33.0,-99.9,29.65,NNW,338,5.0,15.0,-999,0.01,,,0.08,,2013-02-27 21:42:00,
2013-02-27 15:52:00,33.0,-99.9,29.66,West,270,9.0,16.0,-999,0.00,,,0.08,,2013-02-27 21:52:00,
2013-02-27 16:02:00,32.0,-99.9,29.66,West,270,5.0,16.0,-999,0.00,,,0.08,,2013-02-27 22:02:00,
2013-02-27 16:12:00,32.0,-99.9,29.66,West,270,5.0,16.0,-999,0.00,,,0.08,,2013-02-27 22:12:00,
2013-02-27 16:22:00,33.0,-99.9,29.67,West,270,8.0,20.0,-999,0.00,,,0.08,,2013-02-27 22:22:00,
2013-02-27 16:32:00,32.0,-99.9,29.67,West,270,7.0,18.0,-999,0.00,,,0.08,,2013-02-27 22:32:00,
2013-02-27 16:42:00,32.0,-99.9,29.67,West,270,7.0,18.0,-999,0.00,,,0.08,,2013-02-27 22:42:00,
2013-02-27 16:52:00,32.0,-99.9,29.67,West,270,10.0,22.0,-999,0.00,,,0.08,,2013-02-27 22:52:00,
2013-02-27 17:02:00,32.0,-99.9,29.67,West,270,6.0,17.0,-999,0.00,,,0.07,,2013-02-27 23:02:00,
2013-02-27 17:12:00,32.0,-99.9,29.67,West,270,6.0,17.0,-999,0.00,,,0.07,,2013-02-27 23:12:00,
2013-02-27 17:22:00,32.0,-99.9,29.68,West,270,8.0,18.0,-999,0.00,,,0.07,,2013-02-27 23:22:00,
2013-02-27 17:32:00,32.0,-99.9,29.68,WNW,293,6.0,15.0,-999,0.00,,,0.07,,2013-02-27 23:32:00,
2013-02-27 17:42:00,32.0,-99.9,29.68,WNW,293,6.0,15.0,-999,0.00,,,0.07,,2013-02-27 23:42:00,
2013-02-27 17:53:00,32.0,-99.9,29.69,North,0,0.0,17.0,-999,0.00,,,0.07,,2013-02-27 23:53:00,
2013-02-27 18:02:00,32.0,-99.9,29.69,NNW,338,2.0,15.0,-999,0.00,,,0.07,,2013-02-28 00:02:00,
2013-02-27 18:13:00,32.0,-99.9,29.69,NNW,338,2.0,15.0,-999,0.00,,,0.07,,2013-02-28 00:13:00,
2013-02-27 18:22:00,32.0,-99.9,29.70,NW,315,7.0,15.0,-999,0.00,,,0.07,,2013-02-28 00:22:00,
2013-02-27 18:32:00,32.0,-99.9,29.70,NNW,338,5.0,13.0,-999,0.00,,,0.07,,2013-02-28 00:32:00,
2013-02-27 18:42:00,32.0,-99.9,29.70,NNW,338,5.0,13.0,-999,0.00,,,0.07,,2013-02-28 00:42:00,
2013-02-27 18:52:00,32.0,-99.9,29.71,West,270,2.0,14.0,-999,0.00,,,0.07,,2013-02-28 00:52:00,
2013-02-27 19:01:00,32.0,-99.9,29.71,West,270,9.0,15.0,-999,0.00,,,0.07,,2013-02-28 01:01:00,
2013-02-27 19:11:00,32.0,-99.9,29.71,West,270,9.0,15.0,-999,0.00,,,0.07,,2013-02-28 01:11:00,
2013-02-27 19:22:00,32.0,-99.9,29.71,NW,315,6.0,17.0,-999,0.00,,,0.07,,2013-02-28 01:22:00,
2013-02-27 19:32:00,32.0,-99.9,29.71,West,270,8.0,16.0,-999,0.00,,,0.07,,2013-02-28 01:32:00,
2013-02-27 19:42:00,32.0,-99.9,29.71,West,270,8.0,16.0,-999,0.00,,,0.07,,2013-02-28 01:42:00,
2013-02-27 19:52:00,32.0,-99.9,29.71,North,0,2.0,16.0,-999,0.00,,,0.07,,2013-02-28 01:52:00,
2013-02-27 20:01:00,32.0,-99.9,29.71,West,270,8.0,16.0,-999,0.00,,,0.06,,2013-02-28 02:01:00,
2013-02-27 20:11:00,32.0,-99.9,29.71,West,270,8.0,16.0,-999,0.00,,,0.06,,2013-02-28 02:11:00,
2013-02-27 20:22:00,32.0,-99.9,29.72,West,270,5.0,14.0,-999,0.00,,,0.06,,2013-02-28 02:22:00,
2013-02-27 20:32:00,32.0,-99.9,29.72,West,270,9.0,17.0,-999,0.00,,,0.06,,2013-02-28 02:32:00,
2013-02-27 20:42:00,32.0,-99.9,29.72,West,270,9.0,17.0,-999,0.00,,,0.06,,2013-02-28 02:42:00,
2013-02-27 20:52:00,32.0,-99.9,29.72,West,270,9.0,17.0,-999,0.00,,,0.06,,2013-02-28 02:52:00,
2013-02-27 21:02:00,32.0,-99.9,29.72,West,270,8.0,16.0,-999,0.00,,,0.06,,2013-02-28 03:02:00,
2013-02-27 21:11:00,32.0,-99.9,29.72,West,270,8.0,16.0,-999,0.00,,,0.06,,2013-02-28 03:11:00,
2013-02-27 21:22:00,32.0,-99.9,29.72,West,270,8.0,17.0,-999,0.00,,,0.06,,2013-02-28 03:22:00,
2013-02-27 21:32:00,32.0,-99.9,29.72,West,270,9.0,16.0,-999,0.00,,,0.06,,2013-02-28 03:32:00,
2013-02-27 21:42:00,32.0,-99.9,29.72,West,270,9.0,16.0,-999,0.00,,,0.06,,2013-02-28 03:42:00,
2013-02-27 21:52:00,32.0,-99.9,29.72,WNW,293,7.0,15.0,-999,0.00,,,0.06,,2013-02-28 03:52:00,
2013-02-27 22:02:00,32.0,-99.9,29.72,West,270,12.0,17.0,-999,0.00,,,0.06,,2013-02-28 04:02:00,
2013-02-27 22:11:00,32.0,-99.9,29.72,West,270,12.0,17.0,-999,0.00,,,0.06,,2013-02-28 04:11:00,
2013-02-27 22:22:00,32.0,-99.9,29.72,West,270,8.0,17.0,-999,0.00,,,0.06,,2013-02-28 04:22:00,
2013-02-27 22:32:00,32.0,-99.9,29.72,WNW,293,8.0,16.0,-999,0.00,,,0.06,,2013-02-28 04:32:00,
2013-02-27 22:42:00,32.0,-99.9,29.72,WNW,293,8.0,16.0,-999,0.00,,,0.06,,2013-02-28 04:42:00,
2013-02-27 22:52:00,32.0,-99.9,29.72,West,270,8.0,15.0,-999,0.00,,,0.06,,2013-02-28 04:52:00,
2013-02-27 23:02:00,32.0,-99.9,29.72,West,270,7.0,14.0,-999,0.00,,,0.06,,2013-02-28 05:02:00,
2013-02-27 23:11:00,32.0,-99.9,29.72,West,270,7.0,14.0,-999,0.00,,,0.06,,2013-02-28 05:11:00,
2013-02-27 23:22:00,32.0,-99.9,29.72,West,270,8.0,17.0,-999,0.00,,,0.06,,2013-02-28 05:22:00,
2013-02-27 23:32:00,32.0,-99.9,29.72,West,270,10.0,17.0,-999,0.00,,,0.06,,2013-02-28 05:32:00,
2013-02-27 23:43:00,32.0,-99.9,29.72,West,270,10.0,17.0,-999,0.00,,,0.06,,2013-02-28 05:43:00,
2013-02-27 23:52:00,32.0,-99.9,29.72,West,270,9.0,16.0,-999,0.00,,,0.06,,2013-02-28 05:52:00,